| time (UTC) | temp F | wind direction | speed MPH | gust MPH | rain 1hr in | rain 24hr in | rain mn in | humidity % | barometer mb |
| 20260510064533 | 52 | 277 | 0.0 | 4.0 | 0.00 | 0.00 | 0.00 | 72 | 1017.9 |
| 20260510063038 | 52 | 20 | 0.0 | 3.0 | 0.00 | 0.00 | 0.00 | 72 | 1017.9 |
| 20260510061534 | 52 | 45 | 0.0 | 0.0 | 0.00 | 0.00 | 0.00 | 72 | 1017.8 |
| 20260510060034 | 53 | 45 | 0.0 | 0.0 | 0.00 | 0.00 | 0.00 | 71 | 1017.8 |
| 20260510054532 | 54 | 45 | 0.0 | 0.0 | 0.00 | 0.00 | 0.00 | 69 | 1017.8 |
| 20260510053037 | 54 | 45 | 0.0 | 0.0 | 0.00 | 0.00 | 0.00 | 68 | 1017.8 |
| 20260510051535 | 54 | 45 | 0.0 | 0.0 | 0.00 | 0.00 | 0.00 | 67 | 1017.7 |
| 20260510050036 | 55 | 57 | 0.0 | 2.0 | 0.00 | 0.00 | 0.00 | 65 | 1017.6 |
| 20260510044544 | 57 | 90 | 0.0 | 0.0 | 0.00 | 0.00 | 0.00 | 62 | 1017.6 |
| 20260510044536 | 58 | 90 | 0.0 | 0.0 | 0.00 | 0.00 | 0.00 | 59 | 1017.6 |
| 20260510041536 | 60 | 90 | 0.0 | 0.0 | 0.00 | 0.00 | 0.00 | 58 | 1017.4 |
| 20260510040031 | 61 | 90 | 0.0 | 0.0 | 0.00 | 0.00 | 0.00 | 56 | 1017.1 |
| 20260510034532 | 60 | 90 | 0.0 | 4.0 | 0.00 | 0.00 | 0.00 | 59 | 1016.9 |
| 20260510033031 | 60 | 90 | 0.0 | 0.0 | 0.00 | 0.00 | 0.00 | 59 | 1017.0 |
| 20260510031640 | 62 | 90 | 0.0 | 0.0 | 0.00 | 0.00 | 0.00 | 60 | 1016.9 |
| 20260510030031 | 63 | 90 | 0.0 | 0.0 | 0.00 | 0.00 | 0.00 | 59 | 1016.8 |
| 20260510024538 | 65 | 96 | 0.0 | 3.0 | 0.00 | 0.00 | 0.00 | 60 | 1016.6 |
| 20260510023034 | 67 | 135 | 0.0 | 2.0 | 0.00 | 0.00 | 0.00 | 58 | 1016.6 |
| 20260510021535 | 71 | 266 | 0.0 | 0.0 | 0.00 | 0.00 | 0.00 | 52 | 1016.6 |
| 20260510020037 | 73 | 270 | 0.0 | 0.0 | 0.00 | 0.00 | 0.00 | 48 | 1016.7 |
| 20260510014536 | 74 | 270 | 0.0 | 0.0 | 0.00 | 0.00 | 0.00 | 46 | 1016.8 |
| 20260510013036 | 77 | 270 | 0.0 | 1.0 | 0.00 | 0.00 | 0.00 | 37 | 1016.9 |
| 20260510010035 | 77 | 292 | 0.0 | 0.0 | 0.00 | 0.00 | 0.00 | 35 | 1017.1 |
| 20260510004535 | 79 | 33 | 0.0 | 1.0 | 0.00 | 0.00 | 0.00 | 32 | 1017.1 |
| 20260510003106 | 79 | 45 | 0.0 | 0.0 | 0.00 | 0.00 | 0.00 | 29 | 1017.1 |
| 20260510001530 | 79 | 45 | 0.0 | 0.0 | 0.00 | 0.00 | 0.00 | 27 | 1017.4 |
| 20260510000037 | 81 | 22 | 0.0 | 2.0 | 0.00 | 0.00 | 0.00 | 25 | 1017.6 |
| 20260509234535 | 82 | 360 | 0.0 | 5.0 | 0.00 | 0.00 | 0.00 | 25 | 1017.7 |
| 20260509233036 | 82 | 355 | 0.0 | 4.0 | 0.00 | 0.00 | 0.00 | 26 | 1017.9 |
| 20260509230034 | 81 | 46 | 0.0 | 3.0 | 0.00 | 0.00 | 0.00 | 26 | 1018.5 |
| 20260509224536 | 80 | 15 | 1.0 | 5.0 | 0.00 | 0.00 | 0.00 | 28 | 1018.8 |
| 20260509223036 | 79 | 7 | 1.0 | 7.0 | 0.00 | 0.00 | 0.00 | 30 | 1019.0 |
| 20260509220037 | 78 | 325 | 2.0 | 7.0 | 0.00 | 0.00 | 0.00 | 33 | 1019.5 |
| 20260509214641 | 77 | 351 | 1.0 | 7.0 | 0.00 | 0.00 | 0.00 | 34 | 1019.7 |
| 20260509213150 | 76 | 35 | 2.0 | 7.0 | 0.00 | 0.00 | 0.00 | 35 | 1020.0 |
| 20260509210033 | 74 | 1 | 2.0 | 7.0 | 0.00 | 0.00 | 0.00 | 39 | 1020.4 |
| 20260509204536 | 73 | 346 | 2.0 | 8.0 | 0.00 | 0.00 | 0.00 | 40 | 1020.6 |
| 20260509194533 | 71 | 55 | 1.0 | 5.0 | 0.00 | 0.00 | 0.00 | 43 | 1021.6 |
| 20260509190107 | 71 | 344 | 1.0 | 6.0 | 0.00 | 0.00 | 0.00 | 45 | 1022.2 |
| 20260509184610 | 70 | 21 | 2.0 | 6.0 | 0.00 | 0.00 | 0.00 | 46 | 1022.4 |
| 20260509183031 | 69 | 10 | 1.0 | 7.0 | 0.00 | 0.00 | 0.00 | 47 | 1022.6 |
| 20260509181536 | 70 | 346 | 2.0 | 7.0 | 0.00 | 0.00 | 0.00 | 49 | 1022.6 |
| 20260509180033 | 69 | 14 | 1.0 | 7.0 | 0.00 | 0.00 | 0.00 | 51 | 1022.6 |
| 20260509174534 | 68 | 359 | 3.0 | 6.0 | 0.00 | 0.00 | 0.00 | 52 | 1022.7 |
| 20260509173035 | 66 | 353 | 2.0 | 6.0 | 0.00 | 0.00 | 0.00 | 57 | 1022.8 |
| 20260509171607 | 64 | 337 | 0.0 | 4.0 | 0.00 | 0.00 | 0.00 | 60 | 1023.0 |
| 20260509170036 | 63 | 339 | 0.0 | 2.0 | 0.00 | 0.00 | 0.00 | 58 | 1023.1 |
| 20260509164651 | 65 | 78 | 0.0 | 2.0 | 0.00 | 0.00 | 0.00 | 59 | 1023.3 |
| 20260509163037 | 63 | 116 | 0.0 | 4.0 | 0.00 | 0.00 | 0.00 | 61 | 1023.5 |
| 20260509161642 | 61 | 60 | 0.0 | 5.0 | 0.00 | 0.00 | 0.00 | 64 | 1023.7 |
| 20260509160034 | 60 | 58 | 0.0 | 5.0 | 0.00 | 0.00 | 0.00 | 66 | 1023.8 |
| 20260509154530 | 59 | 46 | 1.0 | 6.0 | 0.00 | 0.00 | 0.00 | 70 | 1023.7 |
| 20260509151606 | 54 | 61 | 0.0 | 6.0 | 0.00 | 0.00 | 0.00 | 79 | 1023.7 |
| 20260509144533 | 50 | 142 | 0.0 | 5.0 | 0.00 | 0.00 | 0.00 | 88 | 1023.8 |
| 20260509143031 | 49 | 154 | 0.0 | 2.0 | 0.00 | 0.00 | 0.00 | 89 | 1023.7 |
| 20260509140035 | 45 | 112 | 0.0 | 3.0 | 0.00 | 0.00 | 0.00 | 90 | 1023.6 |
| 20260509134532 | 44 | 121 | 1.0 | 4.0 | 0.00 | 0.00 | 0.00 | 90 | 1023.6 |
| 20260509133107 | 43 | 199 | 0.0 | 3.0 | 0.00 | 0.00 | 0.00 | 89 | 1023.5 |
| 20260509131536 | 42 | 269 | 0.0 | 2.0 | 0.00 | 0.00 | 0.00 | 88 | 1023.3 |
| 20260509130033 | 43 | 90 | 0.0 | 0.0 | 0.00 | 0.00 | 0.00 | 87 | 1023.1 |
| 20260509123032 | 44 | 90 | 0.0 | 0.0 | 0.00 | 0.00 | 0.00 | 86 | 1023.1 |
| 20260509120036 | 45 | 96 | 0.0 | 3.0 | 0.00 | 0.00 | 0.00 | 86 | 1023.1 |
| 20260509114534 | 46 | 94 | 0.0 | 3.0 | 0.00 | 0.00 | 0.00 | 85 | 1023.1 |
| 20260509113035 | 46 | 15 | 0.0 | 3.0 | 0.00 | 0.00 | 0.00 | 83 | 1023.0 |
| 20260509111538 | 47 | 79 | 0.0 | 2.0 | 0.00 | 0.00 | 0.00 | 81 | 1022.8 |
| 20260509104607 | 49 | 93 | 0.0 | 3.0 | 0.00 | 0.00 | 0.00 | 80 | 1022.8 |
| 20260509101535 | 47 | 217 | 1.0 | 8.0 | 0.00 | 0.00 | 0.00 | 82 | 1022.8 |
| 20260509100036 | 47 | 90 | 0.0 | 0.0 | 0.00 | 0.00 | 0.00 | 82 | 1022.8 |
| 20260509094534 | 47 | 90 | 0.0 | 2.0 | 0.00 | 0.00 | 0.00 | 81 | 1022.8 |
| 20260509093033 | 47 | 98 | 0.0 | 4.0 | 0.00 | 0.00 | 0.00 | 79 | 1022.8 |
| 20260509091607 | 48 | 105 | 0.0 | 2.0 | 0.00 | 0.00 | 0.00 | 77 | 1023.0 |
| 20260509084653 | 52 | 270 | 0.0 | 2.0 | 0.00 | 0.00 | 0.00 | 68 | 1023.3 |
| 20260509083038 | 55 | 107 | 0.0 | 0.0 | 0.00 | 0.00 | 0.00 | 64 | 1023.5 |
| 20260509081536 | 57 | 189 | 0.0 | 4.0 | 0.00 | 0.00 | 0.00 | 62 | 1023.5 |
| 20260509080035 | 57 | 264 | 4.0 | 12.0 | 0.00 | 0.00 | 0.00 | 62 | 1023.3 |
| 20260509073036 | 57 | 276 | 3.0 | 6.0 | 0.00 | 0.00 | 0.00 | 61 | 1023.4 |
| 20260509071536 | 58 | 257 | 2.0 | 6.0 | 0.00 | 0.00 | 0.00 | 60 | 1023.3 |
| 20260509070036 | 58 | 258 | 3.0 | 10.0 | 0.00 | 0.00 | 0.00 | 59 | 1023.2 |